DW0742 Weather Reports


Display with metric or nautical units.
time (UTC)temp
F
wind
direction
speed
MPH
gust
MPH
rain 1hr
in
rain 24hr
in
rain mn
in
humidity
%
barometer
mb
20260508231545 103 59 0.0 6.0 0.00 0.00 0.00 4 1001.9
20260508230435 103 0 0.0 6.0 0.00 0.00 0.00 4 1002.1
20260508224535 104 0 0.0 4.0 0.00 0.00 0.00 4 1002.2
20260508223040 104 0 0.0 3.0 0.00 0.00 0.00 5 1002.4
20260508221540 103 0 0.0 4.0 0.00 0.00 0.00 4 1002.6
20260508220046 103 0 0.0 4.0 0.00 0.00 0.00 4 1002.8
20260508214539 103 0 0.0 2.0 0.00 0.00 0.00 5 1002.9
20260508213038 103 0 0.0 3.0 0.00 0.00 0.00 4 1003.1
20260508211542 103 0 0.0 0.0 0.00 0.00 0.00 4 1003.4
20260508210043 103 0 0.0 0.0 0.00 0.00 0.00 4 1003.7
20260508204547 101 0 0.0 0.0 0.00 0.00 0.00 4 1003.7
20260508203050 102 0 0.0 4.0 0.00 0.00 0.00 4 1004.0
20260508201535 101 0 0.0 0.0 0.00 0.00 0.00 5 1004.2
20260508200047 100 0 0.0 1.0 0.00 0.00 0.00 6 1004.5
20260508194538 100 0 0.0 5.0 0.00 0.00 0.00 5 1004.6
20260508193044 100 0 0.0 5.0 0.00 0.00 0.00 5 1004.7
20260508191549 99 0 0.0 5.0 0.00 0.00 0.00 6 1004.8
20260508190036 100 0 0.0 6.0 0.00 0.00 0.00 6 1004.9
20260508184537 99 0 0.0 1.0 0.00 0.00 0.00 6 1005.0
20260508183043 98 0 0.0 0.0 0.00 0.00 0.00 8 1005.1
20260508181543 97 0 0.0 0.0 0.00 0.00 0.00 10 1005.4
20260508180042 95 0 0.0 0.0 0.00 0.00 0.00 12 1005.4